DELTA 1 DEB, 720

Orbit data source: Space-Track

DELTA 1 DEB, 720 is space debris in LEO originally from a launch on Sat, 21 Dec 1963 UTC launched from the Air Force Western Test Range (AFWTR). Debris objects in space refer to the collection of defunct objects orbiting the Earth. Examples of debris include non-operational satellites, rocket bodies, and fragments generated from explosions, collisions, or faulty payload assembly.

Loading next visibility...
Identifier
720, 1963-054C
Orbit
LEO
Last TLE update
8 hours ago
Origin
Manufacturer
Unknown
Mission
Spacecraft
Bus & Motor
Unknown
Mass
~1 kg wet, ~1 kg dry
Launch date (UTC)
1963-12-21 (62 years ago)
Launch vehicle
Unknown
Launch site
Air Force Western Test Range (AFWTR)
Object type
Payload
Rocket body
Debris
Shape & HBR
Box + 1 Cable, 3.5 m
Radar Cross Section
6.125 m², Small (<0.1 m²)

Expand to show TLE details & history

TLE from 8 hours ago
0 DELTA 1 DEB
1 00720U 63054C   25182.86219314  .00000136  00000-0  73950-4 0  9997
2 00720  58.4729 302.2794 0105328 340.9534  18.7568 14.50079766230667
Epoch: 2025-07-01T20:41Z
TLE epoch observation values (Epoch: 2025-07-01T20:41:33.487Z)
Latitude
-0.00001°
Longitude
71.73831°
Altitude
656.023 km
Speed
7.568 km/s
True Right ascension
20h 09m 07s
True Declination
0° 00' 00"
Sunlit
Object was in full shadow at epoch
Visualization orbit readout
Latitude
-38.7867°
Longitude
-80.03867°
Altitude
768.789 km
Speed
7.453 km/s
Apparent Right ascension
07h 17m 17s
Apparent Declination
-48° 53' 29"
Sunlit
Object is in daylight
Visualization observer readout
Local Sidereal Time
16:03:03
Azimuth
238.785° WSW
Elevation
-54.809°
Doppler factor
1
Orbital elements
Apogee altitude
799.649 km
Perigee altitude
650.021 km
Semi-major axis
7,102.972 km
Eccentricity
0.01053
Inclination
58.4729°
RAAN
302.2794°
Arg. of periapsis
340.9534°
True anomaly
Unknown
Mean anomaly
18.7568°
Eccentric anomaly
Unknown
Mean motion
3.62563 °/min
Orbital period
99.29 mins
BSTAR
0.00007395
Loading maneuver chart data...
Loading SW <> Apogee altitude chart data...
Loading historical data...
Loading historical data...
Loading historical data...
Loading historical data...
Loading historical data...
Loading historical data...
Loading historical data...
Other satellites on launch #54 in the year 1963 (1963-12-21 UTC)

DELTA 1 DEB Visibility forecast

Observer location: undefined°, undefined°

Span
Click to sort rows by Start time (UTC) header in descending order
Start Az.
Max El. time (UTC)
Max El. Az.
Max El.
End time (UTC)
End Az.
8 mins2025-07-02 10:04:40.303Z210.201° SW2025-07-02 10:08:40.303Z119.935° SE43.385°2025-07-02 10:12:40.303Z46.541° ENE
6 mins2025-07-02 11:49:40.303Z290.796° WNW2025-07-02 11:51:40.303Z322.078° NNW21.303°2025-07-02 11:55:40.303Z18.037° NNE
7 mins2025-07-02 17:03:40.303Z346.878° N2025-07-02 17:06:40.303Z41.356° NE29.847°2025-07-02 17:10:40.303Z99.442° ESE
9 mins2025-07-02 18:45:40.303Z302.026° NW2025-07-02 18:49:40.303Z234.612° WSW35.321°2025-07-02 18:54:40.303Z165.107° S
|